Starlink 5282

operational
NORAD ID: 54169 Int'l Des: 2022-141 Owner: SPXS Country: US Constellation: starlink
LEOCIRCULAR

About Starlink 5282

Description loading...

Live Position

Loading 3D Globe...

Upcoming Passes

Altitude History

Altitude vs Time

uPlot chart will show altitude changes over time

Two-Line Element Set

1 54169U 22141N 25303.12738689 .00000798 00000-0 68242-4 0 9992
2 54169 53.2170 229.7856 0001496 88.4113 271.7051 15.08845776166152
Epoch: Oct 30, 2025 • Age: 22 hours

Current Status

Altitude 558.8 km
Velocity 7.58 km/s
Sub-Earth Point -52.12°S, 98.76°E
Launch Date Oct 28, 2022
Age 3 years
Type internet

Technical Details

Classification Payload
Mass 305.00 kg
Dry Mass 290.00 kg
Total Mass 305.00 kg
Length 0.20 m
Diameter 2.80 m
Span 9.00 m
Shape Box + pan
Manufacturer SPXS
Bus Type Starlink
Phase Status In Orbit
Owner/State SPXS/US

Large Constellations

Loading constellations...